Location: Écuvilly
(49.6505°N, 2.9206°E)
Time: 01:19:18
(UTC+00:00)

Cosmos 1943 Rocket - Pass Details

Date: 17 November 2025
Orbit: 812 x 841 km, 71.0° (Epoch: 13 December)

Event Time Altitude Azimuth Distance (km) Brightness Sun altitude
Rises 19:26:36 0° 251° (WSW) 3,375 6.2 -32.7°
Reaches altitude 10° 19:29:32 10° 265° (W) 2,440 5.4 -33.2°
Maximum altitude 19:33:58 24° 318° (NW) 1,671 4.1 -33.9°
Enters shadow 19:35:46 20° 346° (NNW) 1,817 4.1 -34.2°
